Regional Weather Roundup
Issued by NWS

Home | Current Version | Previous Version | Graphics & Text | Print | Product List | Glossary On
Versions: 1 2 3 4 5 6 7 8 9 10 11 12 13 14 15 16 17 18 19 20 21 22 23 24 25 26 27 28 29 30 31 32 33 34 35 36 37 38 39 40 41 42 43 44 45 46 47 48 49 50
000
ASUS45 KABQ 252210
RWRNM
NEW MEXICO REGIONAL WEATHER ROUNDUP
NATIONAL WEATHER SERVICE ALBUQUERQUE NM
400 PM MDT SAT MAR 25 2017

NOTE: "FAIR" MEANS FEW OR NO CLOUDS BELOW 12,000 FEET AGL WITH NO
       SIGNIFICANT WEATHER OR OBSTRUCTIONS TO VISION.

      THIS PRODUCT IS RELEASED AS TWO VERSIONS.  ONE VERSION NEAR
      THE TOP OF THE HOUR CONTAINING PRELIMINARY DATA FROM ALBUQUERQUE
      AND OTHER STATIONS.  A FINAL VERSION WITH ADDITIONAL DATA IS
      ISSUED ABOUT 10 MINUTES AFTER THE HOUR.

NMZ501-503-504-510>518-252300-
NORTHWEST PLATEAU/NORTHCENTRAL MOUNTAINS

CITY           SKY/WX    TMP DP  RH WIND       PRES   REMARKS
FARMINGTON     FAIR      65  14  14 VRB6      29.88F
LOS ALAMOS     FAIR      56  14  18 S14G22    29.99F
SANTA FE       FAIR      61  18  18 W10       29.96F
TAOS             N/A     57  27  30 SW7G16    29.98F
ANGEL FIRE     FAIR      51  24  33 SW18      30.01F

$$
NMZ402-403-502-505>509-252300-
WESTCENTRAL MOUNTAINS/SOUTHWEST MOUNTAINS

CITY           SKY/WX    TMP DP  RH WIND       PRES   REMARKS
GALLUP         FAIR      65  18  16 SW20G28   29.94F
GRANTS         FAIR      68  12  11 SW5G18    29.93F
SILVER CITY    FAIR      71  17  12 SW14G22   29.98F

$$
NMZ407-409-411-412-252300-
SOUTHERN DESERTS

CITY           SKY/WX    TMP DP  RH WIND       PRES   REMARKS
DEMING         FAIR      76  13   9 SW10G18   29.93F
LAS CRUCES     FAIR      75  13   9 SW8       29.95F
HOLLOMAN AFB   FAIR      75  18  11 S10G21    29.95F
ALAMOGORDO     FAIR      72  28  20 S13G18    29.94F
T OR C         FAIR      74  17  11 S25G32    29.89F

$$
NMZ519>523-252300-
CENTRAL VALLEYS/CENTRAL HIGHLANDS

CITY           SKY/WX    TMP DP  RH WIND       PRES   REMARKS
ALBUQUERQUE    PTSUNNY   67  18  15 S9        29.91F
DOUBLE EAGLE   PTSUNNY   66  21  18 SE12G21   29.94F
MORIARTY ARPT  FAIR      69  16  13 S17G25    29.96F
CLINES CORNERS FAIR      64  12  13 SW21      29.99F
BELEN          FAIR      73  19  13 S20       29.89F
SOCORRO        FAIR      75  18  11 S18G28    29.90F

$$
NMZ524>526-539-540-252300-
SOUTHCENTRAL MOUNTAINS

CITY           SKY/WX    TMP DP  RH WIND       PRES   REMARKS
RUIDOSO        FAIR      64  10  12 S22       30.04F

$$
NMZ527>531-252300-
NORTHEAST HIGHLANDS/NORTHEAST PLAINS

CITY           SKY/WX    TMP DP  RH WIND       PRES   REMARKS
LAS VEGAS      FAIR      64  10  12 SW20G31   29.95F
RATON          FAIR      61  27  27 S13       29.92F
CLAYTON        FAIR      67  28  23 SE15      29.91F

$$
NMZ532>537-252300-
EASTCENTRAL PLAINS

CITY           SKY/WX    TMP DP  RH WIND       PRES   REMARKS
TUCUMCARI      FAIR      74  24  15 S7G17     29.86F
CANNON AFB     FAIR      73  23  15 SW15G22   29.92F
CLOVIS AIRPORT FAIR      72  27  18 SW13G20   29.93F

$$
NMZ028-029-538-252300-
SOUTHEAST PLAINS

CITY           SKY/WX    TMP DP  RH WIND       PRES   REMARKS
ROSWELL        FAIR      77  27  15 S20G28      N/A
ARTESIA        FAIR      77  32  19 SE20G31   29.89F
CARLSBAD       FAIR      77  26  15 SE18G25   29.88F
HOBBS          SUNNY     72  27  18 S16       29.96F


$$




USA.gov is the U.S. government's official web portal to all federal, state and local government web resources and services.